sat.trackr.live / text

‹ back to catalog

QIANFAN-158

NORAD 69117 · 2026-108P

PAYLOAD ACTIVE UNKNOWN

§ Identity

Operator
Country
PRC
Launch date
2026-05-17
Launch site
WSC
Launch vehicle
Mass (kg)
RCS (m²)

External: N2YO · Heavens-Above · Gunter

§ Orbital elements

Epoch: 2026-09-20T03:17:46.564800Z

Period
106.59 min
Inclination
89.0191°
Eccentricity
0.0001872
Mean motion
13.51024010 rev/d
Perigee alt
1,067.1 km
Apogee alt
1,069.9 km
Semi-major
7,446.6 km
B*
1.4792e-4
RAAN
12.5101°
Arg perigee
106.6424°
Mean anomaly
253.4933°
Rev number
1,729

§ Raw data

QIANFAN-1581 69117U 26108P   26263.13734450  .00000107  00000+0  14792-3 0  99902 69117  89.0191  12.5101 0001872 106.6424 253.4933 13.51024010 17290

JSON: /api/v1/satellites/69117 · /tle

For live sub-satellite position, see the globe view (requires WebGL).

§ Visibility from observer

Set your observer location to see the next 7 days of passes ≥ 10°. The values pass through the URL so the page stays shareable.

No JS? Fill the form by hand. The geolocation button needs JavaScript.